Regional Weather Roundup
Issued by NWS

Home | Current Version | Previous Version | Text Only | Print | Product List | Glossary Off
Versions: 1 2 3 4 5 6 7 8 9 10 11 12 13 14 15 16 17 18 19 20 21 22 23 24 25 26 27 28 29 30 31 32 33 34 35 36 37 38 39 40 41 42 43 44 45 46 47 48 49 50

211
ASUS43 KMKX 221100
RWRWI

WISCONSIN REGIONAL WEATHER ROUNDUP
NATIONAL WEATHER SERVICE MILWAUKEE/SULLIVAN WI
600 AM CDT TUE MAY 22 2018

NOTE: "FAIR" INDICATES FEW OR NO CLOUDS BELOW 12,000 FEET WITH NO
SIGNIFICANT WEATHER AND/OR OBSTRUCTIONS TO VISIBILITY.

WIZ001-002-006>008-014>016-023>028-221200-
NORTHWEST WISCONSIN

CITY           SKY/WX    TMP DP  RH WIND       PRES   REMARKS
SUPERIOR ARPT  CLOUDY    51  39  63 SW3       30.02R
ASHLAND        CLOUDY    54  51  90 S5        30.03R
HAYWARD        CLOUDY    57  54  89 CALM      30.04R
SIREN          CLOUDY    56  52  86 CALM      30.03S
CUMBERLAND     FOG       54  52  94 CALM      30.03S VSB 3/4
RICE LAKE      CLOUDY    55  54  95 CALM      30.05S FOG
CHETEK         CLOUDY    55  54  99 CALM      30.04S FOG
LADYSMITH      CLOUDY    54  53  97 CALM      30.05S FOG
EAU CLAIRE     NOT AVBL
MENOMONIE      CLOUDY    55  55  97 E5        30.03S FOG
NEW RICHMOND   NOT AVBL
OSCEOLA        CLOUDY    58  54  87 CALM      30.05S
$$

WIZ003>005-009-010-017-018-221200-
NORTH CENTRAL WISCONSIN

CITY           SKY/WX    TMP DP  RH WIND       PRES   REMARKS
MANITOWISH WTR CLOUDY    51  51 100 W3        30.03S
ARBOR VITAE    CLOUDY    53  51  92 CALM      30.03S
WOODRUFF       CLOUDY    53  51  92 CALM      30.03S
RHINELANDER    CLOUDY    53  51  93 NW3       30.03F
EAGLE RIVER    CLOUDY    51  48  90 CALM      30.03S
LAND O LAKES   CLOUDY    52  48  88 CALM      30.04S
PHILLIPS       CLOUDY    52  52 100 CALM      30.03S
TOMAHAWK       CLOUDY    49  47  94 CALM      30.03F
MEDFORD        CLOUDY    50  49  97 CALM      30.03S FOG
MERRILL        CLOUDY    50  50 100 CALM      30.03S
$$

WIZ029-030-035-036-043>047-221200-
CENTRAL WISCONSIN

CITY           SKY/WX    TMP DP  RH WIND       PRES   REMARKS
WAUSAU         CLOUDY    51  50  96 NW3       30.02R FOG
MOSINEE        CLOUDY    50  50 100 N5        30.04R
MARSHFIELD     CLOUDY    51  51 100 N3        30.02S FOG
STEVENS POINT  CLOUDY    49  49 100 CALM      30.03R FOG
WAUPACA        CLOUDY    53  52  97 NW3       30.02S FOG
WAUTOMA        LGT RAIN  51  50  96 CALM      30.03R
WISC RAPIDS    CLOUDY    52  50  93 NW3       30.04R FOG
CAMP DOUGLAS   LGT RAIN  52  52 100 CALM      30.02S FOG
$$

WIZ011>013-019>022-031-037>040-048>050-221200-
NORTHEAST WISCONSIN

CITY           SKY/WX    TMP DP  RH WIND       PRES   REMARKS
ANTIGO         FOG       47  47 100 CALM      30.02S VSB<1/4
SHAWANO        CLOUDY    52  49  92 CALM      30.01S
OCONTO         CLOUDY    49  48  93 NE3       30.01F
STURGEON BAY   FOG       49  48  97 E3        30.02S VSB 1/4
GREEN BAY      CLOUDY    51  49  92 N5        30.01S
MANITOWOC      FOG       47  47 100 NE3       30.03R VSB 1/2
APPLETON       CLOUDY    50  50 100 N5        30.00S FOG
CLINTONVILLE   CLOUDY    51  49  93 N3        30.01S FOG
OSHKOSH        CLOUDY    52  50  93 N6        30.01R FOG
$$

WIZ032>034-041-042-053>061-221200-
SOUTHWEST WISCONSIN

CITY           SKY/WX    TMP DP  RH WIND       PRES   REMARKS
LA CROSSE      CLOUDY    57  55  93 E6        30.02R
SPARTA         CLOUDY    50  50 100 N3        30.03S
VIROQUA        CLOUDY    54  54 100 E3        30.02R VSB 3/4
BOSCOBEL       CLOUDY    57  55  93 NE3       30.02R FOG
PRAIRIE DU CHI CLOUDY    59  57  94 NW5       30.00S
PLATTEVILLE    CLOUDY    59  59 100 W3        30.01R VSB 1/4
$$

WIZ056-057-062-063-064-067-068-221200-
SOUTH CENTRAL WISCONSIN

CITY           SKY/WX    TMP DP  RH WIND       PRES   REMARKS
REEDSBURG      CLOUDY    51  51 100 NE3       30.01S FOG
BARABOO/DELLS  CLOUDY    51  50  97 CALM      30.01F FOG
LONE ROCK      NOT AVBL
MINERAL POINT  CLOUDY    55  55 100 N3        30.01R FOG
MADISON        CLOUDY    52  51  97 CALM      30.00S FOG
MIDDLETON      CLOUDY    53  53 100 CALM      30.01S
WATERTOWN      CLOUDY    50  50 100 N3        30.00S FOG
MONROE         FOG       54  52  94 NE6       30.00S VSB<1/4
JANESVILLE     CLOUDY    54  54 100 CALM      30.01R FOG
$$

WIZ051-052-058>065-066-070>072-221200-
SOUTHEAST WISCONSIN

CITY           SKY/WX    TMP DP  RH WIND       PRES   REMARKS
MILWAUKEE      FOG       48  48 100 N3        30.01R VSB 1/4
WAUKESHA       FOG       48  48 100 CALM      30.02R VSB 1
MILWAUKEE/TIMM RAIN      48  46  93 CALM      30.01S
RACINE         FOG       47  47 100 N7        30.02R VSB 1/4
BURLINGTON     DRIZZLE   50  49  97 CALM      30.00S
KENOSHA        CLOUDY    50  48  93 N5        30.00S FOG
FOND DU LAC    LGT RAIN  51  49  92 CALM      30.01S FOG
SHEBOYGAN      FOG       49  49 100 NE3       30.01R VSB<1/4
WEST BEND      CLOUDY    48  48 100 CALM      30.00S FOG
JUNEAU         CLOUDY    49  49  99 CALM      30.02R FOG
$$

LSZ147-162-221200-
LAKE SUPERIOR

STATION/POSITION TIME  TEMP    WIND        PRES    WAVE
                       AIR SEA DIR/SP/G            HT/PER
                 (UTC) (F)     (DEG/KT/KT) (MB)    (FT/S)
W MID LAKE BUOY  0950   38 36  250/  6/  6 1016.5R   0
DEVILS ISLAND    1000   47     210/  9/ 10 1016.7R
SAXON HARBOR     1040   51     200/  3/  3 1016.3R
$$

LMZ867-665-643>646-221200-
LAKE MICHIGAN

STATION/POSITION TIME  TEMP    WIND        PRES    WAVE
                       AIR SEA DIR/SP/G            HT/PER
                 (UTC) (F)     (DEG/KT/KT) (MB)    (FT/S)
N MID LAKE BUOY  1040   42 37   40/  2/  4 1016.5S
NORTHPORT PIER   1040   49        CALM     1016.3F
KEWAUNEE LAKESHO 1024   47      20/  3/  5 1015.6
SHEBOYGAN LAKESH 1000   45      10/  9/ 11 1016.3R
PORT WASHINGTON  1030   49      50/  1/  3 1016.9S
ATWATER BUOY     1007   45 47   20/ 10/ 10 1016.2
MILWAUKEE LAKESH 1040   46     360/  6/  7   N/A
KENOSHA   LAKESH 1000   48                 1015.9
$$

TC  - TEMPERATURE IN CELSIUS
VSB - VISIBILITY IN STATUTE MILES
WCI - WIND CHILL INDEX
HX  - HEAT INDEX





USA.gov is the U.S. government's official web portal to all federal, state and local government web resources and services.